Probability
0 0 0 0 0 0 0 0 0 0 0 0 0 0 0 0 0 0 0 0 0 1 10 25 36 36 31 24 19 16 12 7 2 1 0 0 0 0 0 0 0 0 0 0 0 0 0 0 0
0 0 0 0 0 0 0 0 0 0 0 0 0 0 0 0 0 0 0 0 0 1 8 22 35 37 30 24 20 18 14 9 5 2 0 0 0 0 0 0 0 0 0 0 0 0 0 0 0
0 0 0 0 0 0 0 0 0 0 0 0 0 0 0 0 0 0 0 0 1 2 9 22 34 36 30 24 21 19 15 11 6 3 1 0 0 0 0 0 0 0 0 0 0 0 0 0 0
0 0 0 0 0 0 0 0 0 0 0 0 0 0 0 0 0 0 0 1 2 4 10 22 32 32 28 24 21 18 14 9 5 3 1 0 0 0 0 0 0 0 0 0 0 0 0 0 0
0 0 0 0 0 0 0 0 0 0 0 0 0 0 0 0 0 1 2 2 3 5 11 20 27 27 25 23 21 18 12 7 4 2 1 0 0 0 0 0 0 0 0 0 0 0 0 0 0
0 0 0 0 0 0 0 0 0 0 0 0 0 0 0 0 1 4 5 5 5 7 11 17 22 23 23 23 21 16 11 8 5 2 1 0 0 0 0 0 0 0 0 0 0 0 0 0 0
0 0 0 0 0 0 0 0 0 0 0 0 0 0 0 0 2 5 7 7 8 8 10 14 18 19 20 20 18 13 10 8 5 2 0 0 0 0 0 0 0 0 0 0 0 0 0 0 0
0 0 0 0 0 0 0 0 0 0 0 0 0 0 0 1 3 6 10 11 10 8 9 12 14 15 15 15 13 10 9 7 4 1 0 0 0 0 0 0 0 0 0 0 0 0 0 0 0
0 0 0 0 0 0 0 0 0 0 0 0 0 0 0 1 4 10 15 15 12 9 8 9 10 10 11 11 9 8 7 5 2 1 0 0 0 0 0 0 0 0 0 0 0 0 0 0 0
0 0 0 0 0 0 0 0 0 0 0 0 0 0 0 2 7 14 20 20 16 13 10 8 6 7 9 8 7 7 6 3 1 0 0 0 0 0 0 0 0 0 0 0 0 0 0 0 0
0 0 0 0 0 0 0 0 0 0 0 0 0 0 1 4 8 16 22 22 19 16 13 9 5 5 7 7 6 6 5 3 1 0 0 0 0 0 0 0 0 0 0 0 0 0 0 0 0
0 0 0 0 0 0 0 0 0 0 0 0 0 0 1 3 8 14 19 21 21 17 13 9 5 4 5 6 6 6 4 2 0 0 0 0 0 0 0 0 0 0 0 0 0 0 0 0 0
0 0 0 0 0 0 0 0 0 0 0 0 0 0 0 2 5 10 14 19 20 17 13 9 5 4 4 6 6 5 2 0 0 0 0 0 0 0 0 0 0 0 0 0 0 0 0 0 0
0 0 0 0 0 0 0 0 0 0 0 0 0 0 0 1 3 5 10 16 20 18 14 10 6 4 4 4 4 2 1 0 0 0 0 0 0 0 0 0 0 0 0 0 0 0 0 0 0
0 0 0 0 0 0 0 0 0 0 0 0 0 0 0 0 1 2 7 15 20 20 17 13 8 4 2 2 1 1 0 0 0 0 0 0 0 0 0 0 0 0 0 0 0 0 0 0 0
0 0 0 0 0 0 0 0 0 0 0 0 0 0 0 0 0 1 5 12 18 20 20 17 10 5 1 0 0 0 0 0 0 0 0 0 0 0 0 0 0 0 0 0 0 0 0 0 0
0 0 0 0 0 0 0 0 0 0 0 0 0 0 0 0 0 0 2 7 15 20 22 19 12 6 2 0 0 0 0 0 0 0 0 0 0 0 0 0 0 0 0 0 0 0 0 0 0
0 0 0 0 0 0 0 0 0 0 0 0 0 0 0 0 0 0 0 3 11 20 23 20 14 8 4 1 0 0 0 0 0 0 0 0 0 0 0 0 0 0 0 0 0 0 0 0 0
0 0 0 0 0 0 0 0 0 0 0 0 0 0 0 0 0 0 0 2 8 17 22 22 17 11 6 2 0 0 0 0 0 0 0 0 0 0 0 0 0 0 0 0 0 0 0 0 0
0 0 0 0 0 0 0 0 0 0 0 0 0 0 0 0 0 0 0 2 5 12 19 22 19 13 6 2 0 0 0 0 0 0 0 0 0 0 0 0 0 0 0 0 0 0 0 0 0
0 0 0 0 0 0 0 0 0 0 0 0 0 0 0 0 0 0 0 1 4 10 18 23 21 15 8 3 1 0 0 0 0 0 0 0 0 0 0 0 0 0 0 0 0 0 0 0 0
0 0 0 0 0 0 0 0 0 0 0 0 0 0 0 0 0 0 0 1 3 8 16 22 24 18 11 5 2 1 0 0 0 0 0 0 0 0 0 0 0 0 0 0 0 0 0 0 0
0 0 0 0 0 0 0 0 0 0 0 0 0 0 0 0 0 0 0 0 2 6 14 22 25 22 15 7 3 1 0 0 0 0 0 0 0 0 0 0 0 0 0 0 0 0 0 0 0
0 0 0 0 0 0 0 0 0 0 0 0 0 0 0 0 0 0 0 0 1 4 12 20 24 23 18 10 4 2 0 0 0 0 0 0 0 0 0 0 0 0 0 0 0 0 0 0 0
0 0 0 0 0 0 0 0 0 0 0 0 0 0 0 0 0 0 0 0 1 4 10 18 23 22 18 12 5 2 0 0 0 0 0 0 0 0 0 0 0 0 0 0 0 0 0 0 0
0 0 0 0 0 0 0 0 0 0 0 0 0 0 0 0 0 0 0 0 1 4 9 16 21 22 19 12 6 2 0 0 0 0 0 0 0 0 0 0 0 0 0 0 0 0 0 0 0
0 0 0 0 0 0 0 0 0 0 0 0 0 0 0 0 0 0 0 0 1 3 8 14 19 22 19 13 7 3 1 0 0 0 0 0 0 0 0 0 0 0 0 0 0 0 0 0 0
0 0 0 0 0 0 0 0 0 0 0 0 0 0 0 0 0 0 0 0 1 3 6 12 17 20 19 14 8 3 1 0 0 0 0 0 0 0 0 0 0 0 0 0 0 0 0 0 0
0 0 0 0 0 0 0 0 0 0 0 0 0 0 0 0 0 0 0 0 0 2 5 9 14 17 17 13 8 4 2 1 0 0 0 0 0 0 0 0 0 0 0 0 0 0 0 0 0
0 0 0 0 0 0 0 0 0 0 0 0 0 0 0 0 0 0 0 0 1 2 4 7 11 15 15 12 9 5 3 2 1 0 0 0 0 0 0 0 0 0 0 0 0 0 0 0 0
Wind_Speed
3 1 3 4 4 0 6 8 6 5 5 6 6 5 6 6 6 5 3 12 15 18 17 21 23 23 23 22 21 20 20 19 19 18 18 18 18 17 17 17 16 16 16 16 16 16 16 16 15
0 2 3 3 4 5 8 8 10 13 9 3 2 3 3 3 2 6 8 11 18 18 16 18 23 23 23 23 22 21 20 19 19 19 18 18 18 17 17 17 17 16 16 16 16 15 15 15 14
1 2 3 3 6 10 9 7 12 11 10 6 3 1 4 5 5 8 8 17 18 16 15 18 23 23 23 23 22 21 20 20 19 19 19 18 18 17 17 17 16 16 16 15 15 15 14 14 13
1 2 1 4 13 11 9 6 3 5 6 5 4 1 1 3 7 8 15 18 18 15 13 18 23 24 23 23 22 21 21 20 20 19 19 18 18 17 17 17 16 16 16 15 15 14 13 13 13
2 2 4 9 15 9 9 10 7 7 6 5 2 3 1 2 5 14 19 19 18 15 13 17 23 24 23 22 22 22 21 21 20 19 19 19 18 17 17 16 16 16 15 15 14 13 13 12 12
2 3 7 14 15 10 10 10 8 9 9 7 3 4 2 2 11 15 17 17 17 16 14 16 23 22 22 22 22 22 21 21 20 20 19 19 18 18 17 16 15 15 15 14 13 13 12 12 12
5 5 10 10 11 12 12 9 9 10 11 10 6 5 2 3 9 14 14 14 15 14 13 12 14 17 20 21 21 21 21 20 20 20 19 19 18 18 17 16 15 14 14 14 13 12 12 11 11
5 4 9 10 11 13 7 7 7 9 11 7 6 9 8 8 9 12 13 13 13 12 11 10 11 11 12 14 18 19 19 19 19 18 17 16 16 17 16 14 14 14 14 13 12 11 11 10 10
4 8 15 13 11 7 5 7 7 5 5 4 4 7 8 14 15 16 14 12 13 13 11 11 11 11 10 10 14 15 17 17 17 15 16 13 7 8 9 10 13 14 13 12 12 11 10 8 8
8 15 20 9 6 5 6 8 7 5 5 4 2 1 9 16 20 21 20 20 19 18 15 12 12 12 11 10 9 8 8 9 9 8 10 7 6 6 7 11 12 12 12 12 11 10 8 5 3
7 13 9 9 8 7 9 10 6 5 8 6 5 6 12 17 18 20 21 21 21 19 17 15 14 13 11 8 8 5 5 6 7 9 9 7 6 5 4 3 5 6 7 4 5 4 2 2 2
8 10 9 8 8 9 11 10 10 9 11 7 6 12 16 17 19 20 20 19 18 19 18 16 15 13 11 9 8 7 6 6 6 8 10 7 5 4 4 3 3 3 3 3 3 2 2 2 2
13 13 12 10 11 12 12 14 12 14 11 5 4 10 16 18 17 16 16 17 17 19 19 18 16 15 13 10 9 9 8 7 7 7 8 8 6 6 5 4 3 4 3 3 3 3 2 2 2
8 9 11 11 12 11 14 16 13 16 8 5 7 11 13 16 16 12 12 15 18 20 19 18 18 17 14 12 10 9 8 8 7 7 8 10 7 7 6 5 4 4 4 4 4 4 3 2 2
6 9 12 13 12 9 9 16 19 15 8 8 9 11 13 13 13 15 18 19 20 20 19 19 19 18 17 14 12 10 9 9 8 8 9 10 9 9 7 6 5 5 4 4 3 3 3 3 3
4 7 11 10 10 9 10 20 15 9 10 12 11 11 12 13 14 15 16 16 17 18 19 20 18 18 17 14 12 10 9 9 8 8 8 10 10 10 8 6 6 5 4 4 4 3 3 3 3
6 9 12 9 8 8 11 15 9 8 10 12 11 11 12 12 13 13 14 16 17 19 20 20 18 19 18 15 12 10 10 10 8 8 8 10 11 11 8 7 6 6 5 4 5 3 3 3 3
8 8 9 9 5 9 13 15 9 7 10 12 11 11 12 13 16 15 15 16 17 18 19 20 18 19 16 13 10 8 9 9 8 9 9 11 10 11 9 7 7 7 5 4 4 4 3 3 3
9 9 11 10 7 8 14 16 13 11 10 11 11 11 12 14 15 14 16 16 16 17 19 20 19 18 16 13 12 12 12 11 10 9 11 12 11 11 10 7 7 7 7 7 6 4 4 2 3
14 14 14 10 8 9 11 16 13 13 14 13 13 13 13 13 12 13 14 16 17 19 20 21 21 20 19 15 13 10 9 7 7 7 10 12 12 12 10 10 8 8 6 7 7 5 4 2 3
15 14 12 10 8 7 8 13 13 12 13 14 13 13 12 14 14 14 15 16 17 19 21 20 22 21 20 16 10 8 6 5 6 9 10 12 13 13 11 11 10 9 8 8 8 7 7 5 3
14 10 11 9 7 6 6 9 9 11 13 15 15 14 14 13 14 13 14 16 18 20 20 21 22 22 20 18 15 17 14 12 12 11 9 10 12 13 12 12 11 10 8 8 8 7 5 7 5
8 5 9 10 8 8 7 8 9 7 13 16 16 15 14 13 13 13 14 16 17 19 19 19 20 21 20 20 19 19 14 11 6 7 10 10 10 12 12 12 11 11 9 9 9 8 7 6 6
6 4 6 5 4 11 12 11 10 9 14 12 13 14 14 13 13 13 13 13 15 17 17 18 19 20 21 21 20 20 18 13 12 11 12 11 8 9 12 12 12 11 9 10 9 9 9 7 6
5 4 2 3 6 10 8 11 12 9 10 13 13 13 13 12 11 11 11 12 13 15 17 17 20 20 21 22 21 21 20 18 17 15 14 12 9 9 14 13 12 11 10 10 9 9 9 9 8
7 8 7 6 6 4 5 12 9 8 9 9 10 9 9 9 9 10 11 12 14 16 18 18 20 20 21 22 21 19 18 14 13 13 12 13 12 11 12 13 12 11 11 10 10 8 8 8 8
6 7 6 3 4 4 7 7 8 4 6 7 7 7 9 9 9 9 9 11 13 15 18 19 20 19 20 21 20 19 18 16 15 14 12 11 9 9 11 12 11 11 11 11 10 8 9 8 8
6 4 3 5 5 6 7 7 6 4 5 5 5 7 8 9 8 9 8 9 10 13 16 17 18 19 19 20 19 16 18 17 15 13 14 13 12 10 11 12 12 11 11 11 10 7 7 8 7
4 4 4 4 4 4 5 7 6 6 5 5 7 7 8 8 7 7 7 7 8 10 13 15 16 16 16 18 18 17 17 16 14 14 15 13 11 12 12 13 12 12 11 11 10 9 9 10 8
5 5 4 4 5 4 4 9 4 4 4 5 6 6 6 6 6 5 5 4 6 8 10 13 14 14 15 16 15 16 16 15 15 15 14 13 13 12 12 11 12 12 11 11 12 11 10 11 10
Wind_Direction
267 75 87 68 67 114 236 236 231 247 238 221 210 182 177 183 177 196 135 138 139 153 162 160 158 155 153 149 145 142 139 137 134 132 132 130 127 126 123 119 115 111 108 105 103 100 99 99 97
122 112 75 81 148 216 244 228 228 238 233 253 237 174 152 196 181 129 137 150 147 155 159 158 158 156 152 150 147 144 141 139 137 136 135 132 129 127 124 121 116 113 110 107 105 103 102 102 98
229 153 129 147 196 209 228 223 224 246 255 243 243 186 167 175 162 163 160 150 148 155 158 159 159 157 153 150 149 146 144 142 141 139 137 135 132 129 126 123 120 116 112 110 107 105 105 104 100
98 93 131 202 230 223 221 238 246 290 296 244 186 157 169 181 172 165 144 147 148 154 156 160 160 158 155 153 152 149 147 145 143 142 140 137 134 131 128 125 122 120 117 114 111 109 107 106 100
98 144 212 235 238 239 241 253 270 280 277 273 179 165 213 319 138 137 143 149 151 153 156 161 161 159 157 155 153 151 149 148 146 145 143 139 136 132 129 127 126 124 122 118 116 113 110 109 102
177 173 211 232 238 242 247 252 262 263 262 262 200 166 217 142 135 145 148 150 151 153 156 162 162 160 158 156 154 153 151 151 149 148 146 142 138 136 134 133 131 129 126 122 119 117 114 112 104
188 201 226 233 241 244 242 238 238 248 254 243 184 153 180 174 154 145 144 145 148 152 155 160 161 160 159 158 156 155 154 153 152 151 148 144 142 142 140 139 135 133 130 127 123 120 118 114 105
193 213 233 228 234 243 238 237 233 229 248 238 168 161 190 194 152 136 137 141 148 153 157 157 157 157 157 157 157 156 156 155 155 152 147 145 146 145 144 142 140 136 133 131 128 124 121 114 103
186 227 232 222 221 237 234 251 263 255 241 251 211 191 189 152 140 137 141 146 156 161 162 159 156 156 154 155 158 156 156 157 153 149 145 140 137 137 141 144 144 143 140 137 134 131 125 113 98
200 229 234 227 217 238 258 258 271 295 287 285 319 11 131 147 152 155 161 164 168 170 170 165 161 158 156 159 156 155 155 154 147 146 142 135 132 136 140 150 150 147 143 142 140 138 126 104 73
214 235 244 247 250 258 266 270 270 257 263 242 216 168 151 159 164 168 171 173 173 171 171 169 166 162 161 158 156 154 150 149 146 146 144 139 135 137 133 139 147 141 137 128 133 123 106 102 97
246 250 246 251 258 260 261 267 271 250 246 246 211 175 165 170 175 177 177 176 172 172 174 171 168 166 164 159 161 157 155 155 156 156 151 147 145 145 145 140 139 136 131 133 126 130 133 119 117
243 255 257 260 260 260 262 258 260 265 261 260 207 182 180 180 184 184 179 173 171 175 175 174 171 170 167 162 166 164 163 164 161 159 159 155 155 159 155 153 152 154 148 150 149 149 148 141 132
247 260 264 260 259 259 259 261 256 257 257 237 207 196 197 190 186 180 175 176 177 178 177 175 175 174 170 170 171 169 168 166 164 166 167 162 161 163 162 161 162 168 166 162 158 162 158 153 134
255 264 269 255 249 245 257 260 246 249 246 237 222 208 205 205 192 188 185 183 181 181 177 177 177 176 174 173 174 172 171 169 172 173 170 169 166 167 166 166 170 177 169 159 149 152 142 132 120
245 243 249 244 234 237 226 251 249 237 229 238 227 218 209 211 203 198 192 187 183 179 178 179 179 178 177 176 175 173 174 173 176 174 174 174 172 170 167 169 176 175 162 155 152 149 138 129 127
221 233 241 254 227 231 224 250 252 227 225 235 230 218 213 211 212 206 196 191 185 182 180 180 180 179 179 176 175 173 174 177 178 176 177 178 176 173 170 172 175 168 161 160 162 151 144 140 140
216 228 242 240 234 231 242 253 261 248 231 235 232 224 218 214 212 205 200 195 190 185 182 182 181 179 177 173 171 170 175 180 180 181 181 178 178 176 171 170 172 166 161 163 160 151 142 142 145
250 251 256 258 265 257 252 257 258 255 251 243 237 229 225 223 218 207 201 195 190 187 184 184 182 180 176 177 178 179 184 184 184 185 182 180 179 177 174 173 171 171 171 171 161 147 144 138 129
249 255 260 269 257 259 264 266 260 248 243 241 236 234 228 228 225 214 205 197 192 190 188 186 185 182 182 185 183 182 175 177 179 180 183 183 181 180 180 176 176 174 168 168 167 151 144 154 156
248 244 251 261 281 265 276 272 253 250 244 244 239 233 229 223 222 216 207 201 195 193 191 189 188 186 186 181 170 156 150 150 171 185 187 188 185 183 182 181 177 177 176 179 179 168 158 165 187
252 242 251 258 257 250 217 268 249 233 241 242 239 234 230 228 223 216 209 202 198 197 194 192 189 187 186 179 176 175 180 185 190 186 185 185 186 185 184 181 181 181 182 180 183 178 166 159 176
246 247 247 246 245 255 227 252 267 219 233 236 234 233 233 228 224 218 210 205 201 195 193 193 190 189 186 184 183 184 189 191 172 169 176 183 188 188 186 184 184 185 186 185 183 179 177 173 172
247 257 268 249 225 245 226 223 262 217 224 231 233 232 231 227 224 222 214 204 201 195 191 190 189 190 188 187 187 189 190 182 172 177 182 186 188 190 191 188 189 189 188 188 186 185 184 187 180
222 190 232 230 217 239 203 213 245 231 226 225 230 233 233 230 227 226 220 207 200 195 192 190 190 191 190 190 191 193 192 187 187 185 187 186 187 192 195 192 192 191 191 188 183 185 190 188 187
217 193 200 215 219 250 203 227 244 231 232 230 232 238 238 234 229 226 222 211 202 197 192 190 192 192 190 191 194 194 192 191 193 190 189 192 196 197 190 193 194 192 187 187 186 188 191 190 193
204 214 211 234 262 256 240 259 281 252 251 247 248 252 252 243 236 230 228 217 204 198 194 193 192 193 192 193 193 193 192 193 193 190 189 193 194 188 186 189 190 189 188 188 185 193 192 187 193
212 190 179 204 217 237 247 244 242 238 251 264 261 260 263 259 247 238 230 222 210 200 196 193 192 194 193 192 193 193 193 194 192 188 192 194 191 184 183 187 189 188 188 187 187 187 184 185 190
210 201 214 221 223 219 249 255 215 208 226 248 258 268 266 262 256 248 241 225 212 198 193 192 193 193 193 193 191 190 191 191 188 190 193 193 189 186 186 188 189 189 189 186 188 190 183 190 190
209 201 196 218 240 229 249 267 268 243 266 277 281 286 287 282 270 265 257 231 209 197 194 191 191 192 193 192 189 190 188 186 188 191 191 188 188 188 187 184 187 190 189 188 190 192 189 190 191